SCP
0 0 0 0 0 0 0 0 0 0 0 0 0 0 0 0 0 0 0 0 0 0 0 0 1 0 0 0 0 1 1 1 1 1 1 1 1 1
0 0 0 0 0 0 0 0 0 0 0 0 0 0 0 0 0 0 0 0 0 0 0 1 1 1 1 0 0 0 1 1 1 1 1 1 1 1
0 0 0 0 0 0 0 0 0 0 0 0 0 0 0 0 0 0 0 0 0 0 0 1 1 1 1 0 0 0 0 0 1 1 1 1 1 1
0 0 0 0 0 0 0 0 0 0 0 0 0 0 0 0 0 0 0 0 0 0 0 1 1 1 1 1 0 0 0 0 0 0 1 1 1 1
0 0 0 0 0 0 0 0 0 0 0 0 0 0 0 0 0 0 0 0 0 0 0 0 0 1 1 1 1 0 0 0 0 0 0 1 1 1
0 0 0 0 0 0 0 0 0 0 0 0 0 0 0 0 0 0 0 0 0 0 0 0 0 0 1 1 1 0 0 0 0 0 0 0 1 1
0 0 0 0 0 0 0 0 0 0 0 0 0 0 0 0 0 0 0 0 0 0 0 0 0 0 0 1 0 0 0 0 0 0 0 0 0 0
0 0 0 0 0 0 0 0 0 0 0 0 0 0 0 0 0 0 0 0 0 0 0 0 0 0 0 0 0 0 0 0 0 0 0 0 0 0
0 0 0 0 0 0 0 0 0 0 0 0 0 0 0 0 0 0 0 0 0 0 0 0 0 0 0 0 0 0 0 0 0 0 0 0 0 0
0 0 0 0 0 0 0 0 0 0 0 0 0 0 0 0 0 0 0 0 0 0 0 0 0 0 0 0 0 0 0 0 0 0 0 0 0 0
0 0 0 0 0 0 0 0 0 0 0 0 0 0 0 0 0 0 0 0 0 0 0 0 0 0 0 0 0 0 0 0 0 0 0 0 0 0
0 0 0 0 0 0 0 0 0 0 0 0 0 0 0 0 0 0 0 0 0 0 0 0 0 0 0 0 0 0 0 0 0 0 0 0 0 0
0 0 0 0 0 0 0 0 0 0 0 0 0 0 0 0 0 0 0 0 0 0 0 0 0 0 0 0 0 0 0 0 0 0 0 0 0 0
0 0 0 0 0 0 0 0 0 0 0 0 0 0 0 0 0 0 0 0 0 0 0 0 0 0 0 0 0 0 0 0 0 0 0 0 0 0
0 0 0 0 0 0 0 0 0 0 0 0 0 0 0 0 0 0 0 0 0 0 0 0 0 0 0 0 0 0 0 0 0 0 0 0 0 0
0 0 0 0 0 0 0 0 0 0 0 0 0 0 0 0 0 0 0 0 0 0 0 0 0 0 0 0 0 0 0 0 0 0 0 0 0 0
0 0 0 0 0 0 0 0 0 0 0 0 0 0 0 0 0 0 0 0 0 0 0 0 0 0 0 0 0 0 0 0 0 0 0 0 0 0
0 0 0 0 0 0 0 0 0 0 0 0 0 0 0 0 0 0 0 0 0 0 0 0 0 0 0 0 0 0 0 0 0 0 0 0 0 0
0 0 0 0 0 0 0 0 0 0 0 0 0 0 0 0 0 0 0 0 0 0 0 0 0 0 0 0 0 0 0 0 0 0 0 0 0 0
0 0 0 0 0 0 0 0 0 0 0 0 0 0 0 0 0 0 0 0 0 0 0 0 0 0 0 0 0 0 0 0 0 0 0 0 0 0
0 0 0 0 0 0 0 0 0 0 0 0 0 0 0 0 0 0 0 0 0 0 0 0 0 0 0 0 0 0 0 0 0 0 0 0 0 0
0 0 0 0 0 0 0 0 0 0 0 0 0 0 0 0 0 0 0 0 0 0 0 0 0 0 0 0 0 0 0 0 0 0 0 0 0 0
0 0 0 0 0 0 0 0 0 0 0 0 0 0 0 0 0 0 0 0 0 0 0 0 0 0 0 0 0 0 0 0 0 0 0 0 0 0
Wind_Speed
7 7 7 6 6 6 7 7 8 8 8 7 5 5 4 5 4 7 8 4 6 10 11 11 12 12 11 12 15 17 18 17 17 19 24 27 27 26
5 7 7 6 6 6 7 8 8 9 9 7 6 6 5 5 4 7 7 6 9 9 10 10 11 12 12 11 12 15 18 18 18 20 24 27 28 26
8 8 9 9 7 6 7 8 9 9 10 9 6 6 7 7 5 5 6 7 6 5 8 11 12 12 13 12 12 14 16 19 19 20 22 25 29 28
8 8 9 7 10 9 8 9 9 9 10 11 7 5 6 6 6 7 6 6 7 6 7 11 12 12 13 14 13 12 14 16 18 19 22 24 27 29
3 3 5 6 9 8 9 8 7 7 7 7 6 4 4 5 7 7 8 6 7 7 9 10 11 10 11 12 12 11 11 14 17 19 21 23 25 28
6 7 8 7 6 5 3 3 3 5 5 5 5 4 3 4 6 6 7 7 7 8 9 10 10 11 11 11 10 9 9 12 16 19 21 22 23 25
7 8 8 11 13 9 6 5 4 1 0 1 2 3 4 4 5 5 8 8 9 8 7 7 7 8 8 8 8 8 8 10 15 18 19 21 22 24
5 5 5 8 10 11 12 10 8 5 3 2 2 4 5 5 5 6 7 8 7 5 8 9 8 9 9 8 8 9 10 10 12 16 18 20 22 24
4 4 4 4 5 5 5 5 4 5 6 5 5 5 6 6 7 8 8 9 9 9 10 11 10 11 9 9 11 12 13 13 11 13 17 18 21 24
4 5 6 6 6 8 7 6 6 4 5 6 5 6 6 7 8 9 11 11 11 9 9 11 10 10 10 10 10 12 14 14 13 13 15 16 18 22
4 5 6 6 7 9 8 7 7 6 4 6 8 9 11 12 10 8 8 8 9 8 8 9 10 10 10 11 10 12 14 15 15 15 16 16 15 17
3 3 4 7 9 10 8 6 7 7 7 7 7 7 7 7 7 7 6 7 8 7 6 7 8 9 8 7 7 6 7 10 14 16 17 16 14 10
3 2 3 8 10 10 8 6 7 10 8 8 7 6 5 4 5 5 5 6 7 8 7 8 9 9 10 11 11 11 10 9 8 9 12 15 15 12
4 3 4 9 10 9 7 8 9 9 6 6 6 6 6 5 6 7 8 8 9 11 11 11 9 10 11 12 11 9 10 10 9 9 8 9 12 15
4 5 7 9 9 5 5 8 7 5 5 5 6 6 6 7 8 7 8 9 11 11 11 13 12 11 11 12 12 12 11 10 10 9 8 8 7 7
3 3 5 6 5 6 6 5 4 4 5 6 6 6 7 7 7 7 8 8 9 9 9 10 12 12 11 12 12 12 11 10 8 9 9 9 8 8
2 4 5 4 4 4 4 4 4 5 5 5 6 6 7 7 7 7 7 8 9 11 11 8 8 10 12 12 11 12 12 12 11 11 12 11 10 9
3 4 5 5 5 5 5 5 5 5 5 6 6 7 7 8 8 8 8 8 9 10 11 11 10 10 10 10 13 14 12 12 12 13 13 12 12 9
4 4 4 5 5 5 5 5 6 6 6 7 7 7 7 8 8 9 9 8 9 10 11 11 11 10 12 12 9 11 11 11 11 12 12 12 12 9
4 4 5 5 5 5 5 6 6 6 6 7 7 7 8 8 9 9 9 10 10 11 11 11 11 11 12 13 13 14 14 13 12 12 11 10 7 4
5 5 5 5 6 6 6 6 7 7 7 8 8 8 8 8 9 10 10 15 14 12 12 12 12 17 14 12 13 15 15 14 14 12 11 9 7 5
6 6 6 6 6 6 7 7 7 8 8 8 8 8 8 8 10 12 12 12 12 12 14 13 14 13 12 13 15 16 16 11 8 11 14 11 7 8
7 7 7 7 7 7 7 8 9 8 8 8 8 9 9 9 10 11 13 13 13 14 14 14 13 12 13 13 14 14 16 12 7 5 3 4 7 6
Wind_Direction
249 249 246 245 239 238 239 244 253 262 260 263 264 281 296 305 325 305 305 348 310 296 289 284 279 276 279 282 278 272 265 258 250 245 240 229 222 215
257 254 248 246 242 235 235 239 244 254 263 262 257 268 291 292 307 304 311 314 269 276 290 291 286 278 271 273 280 276 266 257 251 246 244 233 222 213
258 259 259 256 252 244 238 238 239 242 252 257 255 265 274 281 297 308 312 308 304 287 297 301 296 288 279 272 274 280 275 263 253 247 245 236 225 215
268 268 267 266 259 255 247 242 240 239 246 255 250 250 266 286 300 306 309 307 306 313 304 296 291 285 279 273 268 273 276 269 259 250 244 237 226 216
318 308 303 284 268 258 251 247 241 234 235 246 250 249 269 287 303 301 303 306 307 308 298 286 280 279 279 278 271 272 281 277 266 256 248 238 225 214
46 39 25 11 354 330 296 279 245 223 215 226 238 245 262 293 301 308 310 309 306 307 298 290 283 277 271 273 274 279 294 297 284 266 247 232 217 206
45 41 34 25 22 24 33 30 18 13 296 241 250 272 277 301 310 317 306 309 302 295 295 303 311 305 294 274 266 272 290 306 302 281 251 227 210 201
44 34 29 25 15 20 31 33 27 21 356 320 284 276 288 301 304 301 303 300 298 308 307 302 301 292 288 283 281 275 277 290 307 299 267 232 212 203
38 18 8 7 359 3 3 355 4 16 357 322 292 290 300 303 304 297 290 288 286 295 299 291 288 283 281 277 270 264 268 272 285 300 288 250 221 210
23 3 346 338 349 346 335 321 311 309 332 309 309 307 308 312 306 297 293 288 284 279 278 282 286 283 285 283 274 258 258 262 268 279 285 271 237 218
0 357 341 329 349 338 323 315 309 306 303 303 310 305 301 296 296 292 287 287 288 291 293 286 289 291 288 282 276 261 252 253 256 261 269 272 255 231
330 346 5 351 350 345 331 320 312 322 323 316 308 301 295 291 288 284 292 289 291 292 290 295 301 313 302 294 301 312 295 270 257 256 259 261 257 245
331 341 8 356 352 350 337 325 332 327 318 313 310 311 314 313 313 313 308 294 284 276 292 305 297 293 285 291 296 296 295 292 286 271 255 250 246 240
323 334 358 354 346 341 331 338 335 320 308 310 310 315 322 325 324 316 302 288 275 273 280 285 280 281 282 283 284 285 286 289 288 281 273 261 244 236
324 344 341 341 331 318 327 329 316 307 313 306 306 313 319 316 311 306 301 293 284 274 268 267 268 273 274 275 278 279 279 277 276 276 273 263 255 242
297 315 314 316 305 304 308 302 305 315 310 302 307 308 307 305 304 310 310 312 302 294 282 278 275 273 270 271 273 275 272 270 270 271 269 263 254 244
320 299 303 313 312 312 306 305 307 301 292 299 301 301 301 303 305 308 304 303 295 298 302 298 287 281 275 273 270 267 267 264 260 260 261 260 252 245
303 294 300 302 304 308 309 309 306 300 302 301 295 293 296 299 300 300 296 291 288 288 291 297 301 296 285 270 245 254 255 257 258 255 253 254 253 244
287 288 288 291 293 295 296 297 298 301 302 292 288 289 291 291 292 293 293 288 283 282 283 287 288 287 287 285 273 250 263 266 260 254 251 250 251 247
273 273 274 277 280 283 285 289 292 293 288 285 284 284 284 286 286 286 288 287 286 284 282 278 274 271 269 278 284 284 275 274 270 263 255 250 248 252
276 271 272 277 281 282 283 285 287 287 287 287 282 280 281 281 281 283 285 286 284 279 278 277 276 280 280 278 272 270 268 255 255 264 266 247 226 208
276 274 274 275 278 278 278 281 283 284 283 277 276 276 277 278 278 280 281 282 281 279 280 279 279 277 268 265 264 269 272 261 243 253 255 241 216 205
277 277 277 276 273 273 276 278 280 280 280 279 277 275 276 277 278 278 279 278 278 280 281 281 279 273 267 262 262 262 261 251 228 222 263 256 234 191